ARIRANG-3 (KOMPSAT-3)

Last updated on Thu Oct 30 2025 00:02:31 GMT+0000 (Coordinated Universal Time)

1 38338U 12025B 25302.52085925 .00000852 00000+0 18101-3 0 9991 2 38338 98.3248 256.7971 0007149 100.8237 259.3768 14.61622652717640
UTC large
Height (km)
Speed (km/s)
/
Latitude / Longitude
Inclination (degrees)
Orbital Period (minutes)
Azimuth
Elevation
Range (km)
Doppler Factor

Next 0 passes for location: London (51.5072 / 0.1276)

Sorry there are no passes over London.